Weather History for KGHW - June, 2014

Change the Weather History Date:

Sunday, June 8, 2014

  Actual Average Record
Temperature  
Mean Temperature 60 °F -  
Max Temperature 71 °F 75 °F 94 °F (1976)
Min Temperature 48 °F 52 °F 40 °F (1966)
Degree Days  
Heating Degree Days 6    
Growing Degree Days 10 (Base 50)    
Moisture  
Dew Point 43 °F    
Average Humidity 55    
Maximum Humidity 87    
Minimum Humidity 31    
Precipitation  
Precipitation 0.00 in - - ()
Sea Level Pressure  
Sea Level Pressure 30.10 in    
Wind  
Wind Speed 3 mph (ESE)    
Max Wind Speed 8 mph    
Max Gust Speed -    
Visibility 10 miles    
Events      
Averages and records for this station are not official NWS values.
T = Trace of Precipitation, MM = Missing Value Source: NWS Daily Summary

Daily Weather History Graph

Daily Weather History Graph

Search for Another Location

Airport or City:

Trip Planner

Search our weather history database for the weather conditions in past years. The results will help you decide how hot, cold, wet, or windy it might be!

Date:

Astronomy

Jun. 08, 2014 Rise Set
Actual Time 5:32 AM CDT 9:08 PM CDT
Civil Twilight 4:54 AM CDT 9:46 PM CDT
Nautical Twilight 4:04 AM CDT 10:36 PM CDT
Astronomical Twilight 2:58 AM CDT 11:43 PM CDT
Moon 4:15 PM CDT (6/8) 2:40 AM CDT (6/8)
Length of Visible Light 16h 51m
Length of Day
15h 36m
Waxing Gibbous, 77% of the Moon is Illuminated
Jun 8
Waxing Gibbous
Jun 12
Full
Jun 19
Last Quarter
Jun 27
New
Jul 5
First Quarter

Hourly Weather History & Observations

Time (CDT) Temp. Dew Point Humidity Pressure Visibility Wind Dir Wind Speed Gust Speed Precip Events Conditions
12:14 AM 55.4 °F 42.8 °F 63% 30.10 in 10.0 mi Calm Calm - N/A   Clear
12:34 AM 55.4 °F 44.6 °F 67% 30.10 in 10.0 mi North 3.5 mph - N/A   Clear
12:54 AM 53.6 °F 44.6 °F 72% 30.10 in 10.0 mi NNW 3.5 mph - N/A   Clear
1:14 AM 55.4 °F 42.8 °F 63% 30.10 in 10.0 mi North 3.5 mph - N/A   Clear
1:34 AM 53.6 °F 42.8 °F 67% 30.10 in 10.0 mi NNW 3.5 mph - N/A   Clear
1:54 AM 53.6 °F 42.8 °F 67% 30.10 in 10.0 mi NNW 3.5 mph - N/A   Clear
2:15 AM 55.4 °F 42.8 °F 63% 30.10 in 10.0 mi NNW 3.5 mph - N/A   Clear
2:34 AM 55.4 °F 42.8 °F 63% 30.10 in 10.0 mi North 3.5 mph - N/A   Clear
2:54 AM 53.6 °F 42.8 °F 67% 30.10 in 10.0 mi NNW 3.5 mph - N/A   Clear
3:14 AM 51.8 °F 42.8 °F 71% 30.10 in 10.0 mi North 4.6 mph - N/A   Clear
3:34 AM 51.8 °F 42.8 °F 71% 30.10 in 10.0 mi North 5.8 mph - N/A   Clear
3:54 AM 51.8 °F 42.8 °F 71% 30.11 in 10.0 mi North 5.8 mph - N/A   Clear
4:14 AM 51.8 °F 42.8 °F 71% 30.11 in 10.0 mi North 4.6 mph - N/A   Clear
4:34 AM 51.8 °F 42.8 °F 71% 30.11 in 10.0 mi Calm Calm - N/A   Clear
4:54 AM 48.2 °F 44.6 °F 87% 30.12 in 10.0 mi Calm Calm - N/A   Clear
5:14 AM 51.8 °F 42.8 °F 71% 30.12 in 10.0 mi NNE 3.5 mph - N/A   Clear
5:35 AM 51.8 °F 42.8 °F 71% 30.11 in 10.0 mi North 3.5 mph - N/A   Clear
5:54 AM 48.2 °F 42.8 °F 82% 30.12 in 10.0 mi Calm Calm - N/A   Clear
6:14 AM 50.0 °F 44.6 °F 82% 30.12 in 10.0 mi Calm Calm - N/A   Clear
6:34 AM 51.8 °F 46.4 °F 82% 30.11 in 10.0 mi North 3.5 mph - N/A   Clear
6:54 AM 53.6 °F 46.4 °F 77% 30.11 in 10.0 mi Calm Calm - N/A   Clear
7:14 AM 55.4 °F 48.2 °F 77% 30.12 in 10.0 mi North 3.5 mph - N/A   Clear
7:34 AM 55.4 °F 48.2 °F 77% 30.12 in 10.0 mi North 3.5 mph - N/A   Clear
7:54 AM 57.2 °F 48.2 °F 72% 30.13 in 10.0 mi Calm Calm - N/A   Clear
8:15 AM 60.8 °F 46.4 °F 59% 30.13 in 10.0 mi ENE 3.5 mph - N/A   Clear
8:34 AM 62.6 °F 46.4 °F 55% 30.13 in 10.0 mi ENE 4.6 mph - N/A   Clear
8:54 AM 62.6 °F 46.4 °F 55% 30.13 in 10.0 mi East 4.6 mph - N/A   Clear
9:14 AM 64.4 °F 44.6 °F 49% 30.13 in 10.0 mi ESE 4.6 mph - N/A   Clear
9:34 AM 64.4 °F 44.6 °F 49% 30.14 in 10.0 mi SSE 6.9 mph - N/A   Clear
9:55 AM 66.2 °F 42.8 °F 43% 30.14 in 10.0 mi SE 6.9 mph - N/A   Clear
1:14 PM 69.8 °F 39.2 °F 33% 30.12 in 10.0 mi Calm Calm - N/A   Unknown
1:34 PM 69.8 °F 37.4 °F 31% 30.12 in 10.0 mi South 3.5 mph - N/A   Unknown
1:55 PM 68.0 °F 37.4 °F 33% 30.12 in 10.0 mi SE 3.5 mph - N/A   Mostly Cloudy
2:14 PM 69.8 °F 37.4 °F 31% 30.12 in 10.0 mi Calm Calm - N/A   Scattered Clouds
2:34 PM 69.8 °F 39.2 °F 33% 30.11 in 10.0 mi SSW 5.8 mph - N/A   Scattered Clouds
2:54 PM 71.6 °F 41.0 °F 33% 30.11 in 10.0 mi SSE 8.1 mph - N/A   Clear
3:14 PM 69.8 °F 37.4 °F 31% 30.10 in 10.0 mi Calm Calm - N/A   Clear
3:34 PM 69.8 °F 39.2 °F 33% 30.10 in 10.0 mi SE 4.6 mph - N/A   Unknown
3:54 PM 68.0 °F 39.2 °F 35% 30.10 in 10.0 mi South 6.9 mph - N/A   Unknown
4:14 PM 69.8 °F 39.2 °F 33% 30.10 in 10.0 mi South 5.8 mph - N/A   Scattered Clouds
4:34 PM 69.8 °F 39.2 °F 33% 30.09 in 10.0 mi SE 3.5 mph - N/A   Scattered Clouds
4:54 PM 68.0 °F 37.4 °F 33% 30.09 in 10.0 mi Calm Calm - N/A   Scattered Clouds
5:14 PM 69.8 °F 39.2 °F 33% 30.08 in 10.0 mi Calm Calm - N/A   Scattered Clouds
5:34 PM 69.8 °F 39.2 °F 33% 30.07 in 10.0 mi SE 4.6 mph - N/A   Clear
5:54 PM 68.0 °F 39.2 °F 35% 30.07 in 10.0 mi SSE 5.8 mph - N/A   Unknown
6:14 PM 68.0 °F 39.2 °F 35% 30.07 in 10.0 mi Calm Calm - N/A   Unknown
6:34 PM 68.0 °F 42.8 °F 40% 30.07 in 10.0 mi SSE 5.8 mph - N/A   Clear
6:55 PM 66.2 °F 39.2 °F 37% 30.06 in 10.0 mi SE 5.8 mph - N/A   Clear
7:14 PM 66.2 °F 39.2 °F 37% 30.06 in 10.0 mi SE 4.6 mph - N/A   Clear
7:34 PM 66.2 °F 39.2 °F 37% 30.06 in 10.0 mi SE 4.6 mph - N/A   Clear
7:54 PM 66.2 °F 39.2 °F 37% 30.06 in 10.0 mi SSE 4.6 mph - N/A   Clear
8:14 PM 64.4 °F 42.8 °F 45% 30.06 in 10.0 mi SSE 3.5 mph - N/A   Clear
8:35 PM 64.4 °F 42.8 °F 45% 30.06 in 10.0 mi SSE 3.5 mph - N/A   Clear
8:54 PM 62.6 °F 44.6 °F 52% 30.06 in 10.0 mi South 3.5 mph - N/A   Clear
9:34 PM 62.6 °F 46.4 °F 55% 30.07 in 10.0 mi SSE 4.6 mph - N/A   Mostly Cloudy
9:54 PM 60.8 °F 46.4 °F 59% 30.07 in 10.0 mi SSE 3.5 mph - N/A   Scattered Clouds
10:14 PM 60.8 °F 48.2 °F 63% 30.07 in 10.0 mi South 3.5 mph - N/A   Scattered Clouds
10:34 PM 60.8 °F 48.2 °F 63% 30.07 in 10.0 mi South 4.6 mph - N/A   Scattered Clouds
10:54 PM 60.8 °F 48.2 °F 63% 30.07 in 10.0 mi Calm Calm - N/A   Clear
11:14 PM 60.8 °F 48.2 °F 63% 30.08 in 10.0 mi SW 3.5 mph - N/A   Scattered Clouds
11:34 PM 60.8 °F 48.2 °F 63% 30.08 in 10.0 mi Calm Calm - N/A   Scattered Clouds
11:54 PM 60.8 °F 48.2 °F 63% 30.08 in 10.0 mi South 3.5 mph - N/A   Scattered Clouds